Ottumwa, IA

3:57 PM CST on December 15, 2019 (GMT -0600)
Ottumwa Industrial

Weather History for KOTM - November, 2019

Change the Weather History Date:

Sunday, November 17, 2019

  Actual Average Record
Temperature  
Mean Temperature 40 °F 38 °F  
Max Temperature 45 °F 48 °F 78 °F (1941)
Min Temperature 36 °F 29 °F -1 °F (1959)
Degree Days  
Heating Degree Days 24 26  
Month to date heating degree days 539 379  
Since 1 July heating degree days 1091 903  
Cooling Degree Days 0 0  
Month to date cooling degree days 0 0  
Year to date cooling degree days 1095 938  
Moisture  
Dew Point 36 °F    
Average Humidity 85    
Maximum Humidity 93    
Minimum Humidity 65    
Precipitation  
Precipitation T in 0.07 in 1.89 in (1928)
Month to date precipitation 0.12 1.45  
Year to date precipitation 38.92 34.77  
Sea Level Pressure  
Sea Level Pressure 29.93 in    
Wind  
Wind Speed 9 mph ()    
Max Wind Speed 16 mph    
Max Gust Speed 23 mph    
Visibility 8.4 miles    
Events Rain    
T = Trace of Precipitation, MM = Missing Value Source: Averaged Metar Reports

Daily Weather History Graph

Daily Weather History Graph

Search for Another Location

Airport or City:

Astronomy

Nov. 17, 2019 Rise Set
Actual Time 6:59 AM CST 4:49 PM CST
Civil Twilight 6:29 AM CST 5:19 PM CST
Nautical Twilight 5:56 AM CST 5:52 PM CST
Astronomical Twilight 5:23 AM CST 6:25 PM CST
Moon 9:25 PM CST (11/17) 11:46 AM CST (11/17)
Length of Visible Light 10h 49m
Length of Day
9h 49m
Waning Gibbous, 73% of the Moon is Illuminated
Nov 17
Waning Gibbous
Nov 19
Last Quarter
Nov 26
New
Dec 4
First Quarter
Dec 11
Full

Hourly Weather History & Observations

Time (CST) Temp. Windchill Dew Point Humidity Pressure Visibility Wind Dir Wind Speed Gust Speed Precip Events Conditions
12:53 AM 36.0 °F 28.0 °F 30.0 °F 79% 30.07 in 7.0 mi SSE 11.5 mph - N/A   Clear
1:53 AM 37.0 °F 29.3 °F 30.9 °F 79% 30.05 in 7.0 mi SSE 11.5 mph - N/A   Clear
2:53 AM 37.0 °F 28.9 °F 30.9 °F 79% 30.01 in 7.0 mi SSE 12.7 mph - N/A   Clear
3:53 AM 37.0 °F 29.3 °F 30.9 °F 79% 29.99 in 7.0 mi South 11.5 mph - N/A   Clear
5:53 AM 37.0 °F 31.6 °F 30.9 °F 79% 29.97 in 7.0 mi South 6.9 mph - N/A   Scattered Clouds
6:53 AM 37.0 °F 29.8 °F 30.9 °F 79% 29.95 in 7.0 mi South 10.4 mph - N/A   Overcast
7:53 AM 37.9 °F 32.1 °F 32.0 °F 79% 29.95 in 6.0 mi South 8.1 mph - N/A   Haze
8:53 AM 37.9 °F 33.5 °F 33.1 °F 83% 29.94 in 6.0 mi South 5.8 mph - 0.00 in Rain Light Rain
10:53 AM 42.1 °F 39.2 °F 34.0 °F 73% 29.93 in 8.0 mi WSW 4.6 mph - N/A   Overcast
11:53 AM 44.1 °F 37.4 °F 34.0 °F 68% 29.92 in 10.0 mi NW 13.8 mph - N/A   Overcast
12:59 PM 41.0 °F 34.7 °F 36.0 °F 82% 29.90 in 6.0 mi NW 10.4 mph - N/A   Haze
1:19 PM 39.9 °F 33.9 °F 37.0 °F 89% 29.89 in 5.0 mi NW 9.2 mph - N/A   Overcast
1:53 PM 42.1 °F 36.6 °F 39.0 °F 89% 29.91 in 7.0 mi NNW 9.2 mph - 0.00 in Rain Light Rain
2:33 PM 43.0 °F 37.2 °F 39.0 °F 86% 29.89 in 10.0 mi NNW 10.4 mph - 0.00 in Rain Light Rain
2:53 PM 43.0 °F 37.7 °F 39.0 °F 86% 29.91 in 10.0 mi NW 9.2 mph - 0.00 in   Overcast
3:16 PM 43.0 °F 36.8 °F 39.0 °F 86% 29.90 in 10.0 mi NW 11.5 mph - N/A   Overcast
3:53 PM 43.0 °F 38.2 °F 37.9 °F 82% 29.92 in 10.0 mi NW 8.1 mph - N/A   Overcast
4:53 PM 41.0 °F 36.4 °F 37.9 °F 89% 29.92 in 9.0 mi WNW 6.9 mph - N/A   Overcast
5:11 PM 41.0 °F 37.1 °F 37.9 °F 89% 29.90 in 10.0 mi West 5.8 mph - N/A   Overcast
5:53 PM 41.0 °F 35.8 °F 37.9 °F 89% 29.92 in 10.0 mi WNW 8.1 mph - N/A   Overcast
6:32 PM 41.0 °F 35.8 °F 37.9 °F 89% 29.91 in 8.0 mi NW 8.1 mph - N/A   Overcast
6:42 PM 41.0 °F 35.2 °F 37.9 °F 89% 29.91 in 6.0 mi NW 9.2 mph - N/A   Overcast
6:53 PM 39.9 °F 33.4 °F 37.9 °F 93% 29.93 in 7.0 mi NW 10.4 mph - N/A   Overcast
7:05 PM 39.9 °F 34.5 °F 37.9 °F 93% 29.91 in 8.0 mi NW 8.1 mph - N/A   Overcast
7:30 PM 39.9 °F 34.5 °F 37.9 °F 93% 29.91 in 10.0 mi NW 8.1 mph - N/A   Overcast
7:34 PM 39.9 °F 34.5 °F 37.9 °F 93% 29.91 in 10.0 mi NW 8.1 mph - N/A   Overcast
7:53 PM 39.9 °F 34.5 °F 37.9 °F 93% 29.93 in 9.0 mi NW 8.1 mph - N/A   Overcast
8:07 PM 39.9 °F 33.9 °F 37.0 °F 89% 29.91 in 10.0 mi NW 9.2 mph - N/A   Overcast
8:35 PM 39.9 °F 34.5 °F 37.0 °F 89% 29.90 in 10.0 mi NW 8.1 mph - N/A   Overcast
8:53 PM 39.9 °F 34.5 °F 37.0 °F 89% 29.92 in 10.0 mi NW 8.1 mph - N/A   Overcast
9:24 PM 37.9 °F 31.5 °F 35.1 °F 89% 29.90 in 10.0 mi NNW 9.2 mph - N/A   Overcast
9:53 PM 37.9 °F 32.7 °F 35.1 °F 89% 29.92 in 10.0 mi NNW 6.9 mph - N/A   Overcast
10:53 PM 37.0 °F 30.4 °F 33.1 °F 86% 29.92 in 10.0 mi NW 9.2 mph - N/A   Overcast
11:53 PM 36.0 °F 28.5 °F 32.0 °F 86% 29.92 in 10.0 mi North 10.4 mph - N/A   Overcast